| time (UTC) | temp F | wind direction | speed MPH | gust MPH | rain 1hr in | rain 24hr in | rain mn in | humidity % | barometer mb |
| 20260504174037 | 66 | 174 | 10.0 | 13.0 | 0.00 | 0.00 | 0.00 | 70 | 1005.8 |
| 20260504173016 | 66 | 182 | 9.0 | 13.0 | 0.00 | 0.00 | 0.00 | 69 | 1006.2 |
| 20260504171017 | 65 | 184 | 10.0 | 13.0 | 0.00 | 0.00 | 0.00 | 69 | 1006.3 |
| 20260504151016 | 66 | 180 | 9.0 | 14.0 | 0.00 | 0.00 | 0.00 | 62 | 1007.7 |
| 20260504141016 | 67 | 180 | 10.0 | 15.0 | 0.00 | 0.00 | 0.00 | 61 | 1008.0 |
| 20260504110139 | 61 | 174 | 9.0 | 10.0 | 0.00 | 0.00 | 0.00 | 72 | 1008.6 |
| 20260504081036 | 60 | 84 | 0.0 | 2.0 | 0.00 | 0.00 | 0.00 | 75 | 1009.0 |
| 20260504050017 | 66 | 3 | 0.0 | 2.0 | 0.00 | 0.00 | 0.00 | 58 | 1008.8 |
| 20260504045016 | 66 | 3 | 1.0 | 5.0 | 0.00 | 0.00 | 0.00 | 59 | 1008.6 |
| 20260504044016 | 67 | 118 | 1.0 | 3.0 | 0.00 | 0.00 | 0.00 | 58 | 1008.8 |
| 20260504043016 | 67 | 129 | 0.0 | 2.0 | 0.00 | 0.00 | 0.00 | 57 | 1009.0 |
| 20260504042036 | 68 | 338 | 1.0 | 2.0 | 0.00 | 0.00 | 0.00 | 56 | 1009.2 |
| 20260504041016 | 69 | 207 | 0.0 | 2.0 | 0.00 | 0.00 | 0.00 | 56 | 1009.4 |
| 20260504040016 | 69 | 69 | 0.0 | 3.0 | 0.00 | 0.00 | 0.00 | 55 | 1009.6 |
| 20260504035016 | 70 | 319 | 2.0 | 4.0 | 0.00 | 0.00 | 0.00 | 54 | 1009.4 |
| 20260504034016 | 70 | 273 | 1.0 | 5.0 | 0.00 | 0.00 | 0.00 | 53 | 1009.4 |
| 20260504033016 | 70 | 290 | 2.0 | 5.0 | 0.00 | 0.00 | 0.00 | 53 | 1009.8 |
| 20260504032016 | 70 | 315 | 1.0 | 2.0 | 0.00 | 0.00 | 0.00 | 53 | 1009.9 |
| 20260504031016 | 70 | 340 | 1.0 | 3.0 | 0.00 | 0.00 | 0.00 | 52 | 1010.1 |
| 20260504030016 | 71 | 77 | 0.0 | 3.0 | 0.00 | 0.00 | 0.00 | 51 | 1009.8 |
| 20260504025016 | 71 | 219 | 1.0 | 4.0 | 0.00 | 0.00 | 0.00 | 50 | 1009.8 |
| 20260504024017 | 71 | 335 | 1.0 | 3.0 | 0.00 | 0.00 | 0.00 | 50 | 1009.7 |
| 20260504023016 | 71 | 317 | 0.0 | 2.0 | 0.00 | 0.00 | 0.00 | 51 | 1009.9 |
| 20260504022016 | 72 | 0.0 | 0.0 | 0.00 | 0.00 | 0.00 | 49 | 1009.9 | |
| 20260504021036 | 72 | 269 | 0.0 | 2.0 | 0.00 | 0.00 | 0.00 | 49 | 1009.8 |
| 20260504020016 | 72 | 127 | 1.0 | 2.0 | 0.00 | 0.00 | 0.00 | 49 | 1009.7 |
| 20260504015016 | 72 | 161 | 1.0 | 3.0 | 0.00 | 0.00 | 0.00 | 49 | 1009.8 |
| 20260504014016 | 72 | 245 | 2.0 | 4.0 | 0.00 | 0.00 | 0.00 | 49 | 1009.8 |
| 20260504013016 | 73 | 334 | 1.0 | 3.0 | 0.00 | 0.00 | 0.00 | 48 | 1009.7 |
| 20260504012017 | 73 | 279 | 1.0 | 3.0 | 0.00 | 0.00 | 0.00 | 46 | 1009.2 |
| 20260504011016 | 73 | 240 | 1.0 | 4.0 | 0.00 | 0.00 | 0.00 | 46 | 1009.0 |
| 20260504010017 | 74 | 265 | 0.0 | 2.0 | 0.00 | 0.00 | 0.00 | 46 | 1009.1 |
| 20260504005026 | 74 | 183 | 0.0 | 2.0 | 0.00 | 0.00 | 0.00 | 44 | 1009.1 |
| 20260504004016 | 75 | 126 | 0.0 | 3.0 | 0.00 | 0.00 | 0.00 | 44 | 1009.1 |
| 20260504003016 | 75 | 311 | 0.0 | 2.0 | 0.00 | 0.00 | 0.00 | 43 | 1009.1 |
| 20260504002016 | 75 | 267 | 1.0 | 4.0 | 0.00 | 0.00 | 0.00 | 43 | 1009.1 |
| 20260504001016 | 75 | 257 | 1.0 | 3.0 | 0.00 | 0.00 | 0.00 | 42 | 1009.2 |
| 20260504000017 | 75 | 146 | 1.0 | 4.0 | 0.00 | 0.00 | 0.00 | 41 | 1009.2 |
| 20260503235037 | 76 | 279 | 1.0 | 3.0 | 0.00 | 0.00 | 0.00 | 41 | 1009.3 |
| 20260503234036 | 76 | 317 | 1.0 | 3.0 | 0.00 | 0.00 | 0.00 | 40 | 1009.3 |
| 20260503233016 | 76 | 301 | 1.0 | 4.0 | 0.00 | 0.00 | 0.00 | 41 | 1009.4 |
| 20260503232016 | 76 | 201 | 1.0 | 3.0 | 0.00 | 0.00 | 0.00 | 39 | 1009.5 |
| 20260503231017 | 77 | 290 | 2.0 | 6.0 | 0.00 | 0.00 | 0.00 | 39 | 1009.6 |
| 20260503230016 | 77 | 265 | 2.0 | 6.0 | 0.00 | 0.00 | 0.00 | 38 | 1009.6 |
| 20260503225020 | 77 | 266 | 2.0 | 4.0 | 0.00 | 0.00 | 0.00 | 39 | 1009.7 |
| 20260503224016 | 77 | 294 | 4.0 | 10.0 | 0.00 | 0.00 | 0.00 | 37 | 1009.7 |
| 20260503223017 | 77 | 281 | 2.0 | 8.0 | 0.00 | 0.00 | 0.00 | 38 | 1009.9 |
| 20260503222016 | 77 | 296 | 4.0 | 13.0 | 0.00 | 0.00 | 0.00 | 38 | 1009.9 |
| 20260503221016 | 77 | 279 | 3.0 | 8.0 | 0.00 | 0.00 | 0.00 | 38 | 1010.0 |
| 20260503220017 | 77 | 299 | 4.0 | 11.0 | 0.00 | 0.00 | 0.00 | 36 | 1010.1 |
| 20260503215017 | 77 | 291 | 4.0 | 15.0 | 0.00 | 0.00 | 0.00 | 36 | 1010.3 |
| 20260503214016 | 77 | 286 | 4.0 | 13.0 | 0.00 | 0.00 | 0.00 | 38 | 1010.3 |
| 20260503213016 | 77 | 287 | 4.0 | 12.0 | 0.00 | 0.00 | 0.00 | 39 | 1010.5 |
| 20260503212146 | 76 | 291 | 3.0 | 9.0 | 0.00 | 0.00 | 0.00 | 38 | 1010.5 |
| 20260503211016 | 76 | 291 | 4.0 | 10.0 | 0.00 | 0.00 | 0.00 | 38 | 1010.7 |
| 20260503210016 | 76 | 296 | 4.0 | 13.0 | 0.00 | 0.00 | 0.00 | 38 | 1010.6 |
| 20260503205016 | 75 | 296 | 4.0 | 10.0 | 0.00 | 0.00 | 0.00 | 38 | 1010.7 |
| 20260503204016 | 75 | 274 | 3.0 | 8.0 | 0.00 | 0.00 | 0.00 | 38 | 1010.9 |
| 20260503203016 | 75 | 195 | 3.0 | 5.0 | 0.00 | 0.00 | 0.00 | 38 | 1011.1 |
| 20260503202037 | 74 | 283 | 3.0 | 11.0 | 0.00 | 0.00 | 0.00 | 37 | 1011.4 |
| 20260503201017 | 73 | 200 | 3.0 | 9.0 | 0.00 | 0.00 | 0.00 | 38 | 1011.5 |
| 20260503200056 | 73 | 288 | 3.0 | 7.0 | 0.00 | 0.00 | 0.00 | 41 | 1011.7 |
| 20260503195016 | 73 | 288 | 4.0 | 11.0 | 0.00 | 0.00 | 0.00 | 38 | 1011.9 |
| 20260503194016 | 72 | 293 | 5.0 | 20.0 | 0.00 | 0.00 | 0.00 | 38 | 1012.3 |
| 20260503193016 | 72 | 272 | 4.0 | 13.0 | 0.00 | 0.00 | 0.00 | 39 | 1012.4 |
| 20260503192036 | 72 | 270 | 4.0 | 13.0 | 0.00 | 0.00 | 0.00 | 39 | 1012.8 |
| 20260503191016 | 71 | 292 | 4.0 | 10.0 | 0.00 | 0.00 | 0.00 | 39 | 1013.0 |
| 20260503190016 | 71 | 285 | 4.0 | 12.0 | 0.00 | 0.00 | 0.00 | 41 | 1013.2 |
| 20260503185016 | 70 | 270 | 3.0 | 7.0 | 0.00 | 0.00 | 0.00 | 39 | 1013.5 |
| 20260503184017 | 70 | 231 | 4.0 | 14.0 | 0.00 | 0.00 | 0.00 | 39 | 1013.6 |
| 20260503183017 | 69 | 259 | 5.0 | 16.0 | 0.00 | 0.00 | 0.00 | 39 | 1013.8 |
| 20260503182016 | 69 | 260 | 3.0 | 8.0 | 0.00 | 0.00 | 0.00 | 40 | 1014.1 |
| 20260503181016 | 68 | 180 | 3.0 | 7.0 | 0.00 | 0.00 | 0.00 | 40 | 1014.2 |
| 20260503180036 | 68 | 310 | 4.0 | 13.0 | 0.00 | 0.00 | 0.00 | 41 | 1014.7 |
| 20260503175016 | 67 | 239 | 4.0 | 10.0 | 0.00 | 0.00 | 0.00 | 43 | 1015.1 |